Regional Weather Roundup
Issued by NWS

Home | Current Version | Previous Version | Graphics & Text | Print | Product List | Glossary On
Versions: 1 2 3 4 5 6 7 8 9 10 11 12 13 14 15 16 17 18 19 20 21 22 23 24 25 26 27 28
000
ASUS43 KMPX 102210
RWRMN
WEATHER ROUNDUP FOR MINNESOTA
NATIONAL WEATHER SERVICE TWIN CITIES/CHANHASSEN MN
500 PM CDT MON MAY 10 2021


NOTE: "FAIR" INDICATES FEW OR NO CLOUDS BELOW 12,000 FEET WITH NO
SIGNIFICANT WEATHER AND/OR OBSTRUCTIONS TO VISIBILITY. N/A MEANS
CURRENT SKY AND/OR WEATHER CONDITIONS ARE NOT AVAILABLE.

MNZ060>063-068>070-102300-
   Twin Cities Metro

CITY           SKY/WX    TMP DP  RH WIND       PRES   REMARKS
TWIN CITIES    PTSUNNY   54  22  28 N9        30.22R
ST PAUL        PTSUNNY   55  22  27 NE12      30.22S
CRYSTAL        CLOUDY    52  20  28 VRB7      30.21S
BLAINE         CLOUDY    54  21  28 NE12G17   30.22S
LAKEVILLE      PTSUNNY   52  18  25 N12       30.20S
EDEN PRAIRIE   PTSUNNY   53  22  29 VRB7      30.20S
SOUTH ST PAUL  CLOUDY    52  20  28 E8G18     30.21S
LAKE ELMO      CLOUDY    50  23  34 N7        30.23S
$$
MNZ001>005-007-008-013>017-022>024-027-028-102300-
   Northwest Minnesota

CITY           SKY/WX    TMP DP  RH WIND       PRES   REMARKS
BEMIDJI        SUNNY     51  20  29 NW6       30.25S
HALLOCK        SUNNY     55  16  21 CALM      30.26S
ROSEAU           N/A     57 N/A N/A E5        30.27F
WARROAD        SUNNY     48  28  46 E9        30.30S
THIEF RVR FALL SUNNY     53  19  26 VRB6      30.27S
CROOKSTON      SUNNY     54  18  24 CALM      30.26S
FOSSTON        SUNNY     50  14  23 NE3       30.26F
DETROIT LAKES  MOSUNNY   52  18  25 N6        30.24S
MOORHEAD       SUNNY     57   9  14 NE14      30.25S
PARK RAPIDS    MOSUNNY   52  18  26 MISG      30.24S
MAHNOMEN       FAIR      53  20  28 NE10      30.24F
$$
MNZ006-009>011-018-025>026-102300-
   North Central Minnesota

CITY           SKY/WX    TMP DP  RH WIND       PRES   REMARKS
BAUDETTE       SUNNY     50  23  34 NW10      30.28F
FLAG ISLAND    SUNNY     46  21  36 NE9       30.28F
INTL FALLS     MOSUNNY   51  22  31 NE10G18   30.26S
WASKISH        PTSUNNY   52  25  35 W8        30.26S
BIG FORK       PTSUNNY   52  19  28 N6        30.28F
LONGVILLE      CLOUDY    48  19  32 N5        30.24F
GRAND RAPIDS   CLOUDY    49  19  30 N10       30.25F
CRANE LAKE     CLOUDY    45  23  42 N3        30.29S
ORR            PTSUNNY   52  18  25 CALM      30.23F
COOK           CLOUDY    48  23  37 NE7       30.24S
WALKER         CLEAR     47  22  36 SE6       30.25S
$$
MNZ012-019>021-037-102300-
   Northeast Minnesota

CITY           SKY/WX    TMP DP  RH WIND       PRES   REMARKS
DULUTH         PTSUNNY   46  24  42 SE13      30.22R
ELY            CLOUDY    45  21  39 N5        30.25S
HIBBING        CLOUDY    49  19  30 NW9       30.22S
EVELETH        CLOUDY    51  23  33 N9        30.24S
DULUTH HARBOR  PTSUNNY   46  32  57 E13       30.25S
TWO HARBORS    CLOUDY    45  25  45 SE6       30.24S
SILVER BAY     CLOUDY    45  25  45 E5        30.24S
GRAND MARAIS     N/A     48  25  40 VRB7      30.24S
G MARAIS ARPRT CLOUDY    41  21  45 N10G16    30.22R
$$
MNZ029>031-032-039>041-046>048-054>057-064-102300-
   West Central Minnesota

CITY           SKY/WX    TMP DP  RH WIND       PRES   REMARKS
FERGUS FALLS   MOSUNNY   54  25  32 CALM      30.21S
WHEATON        PTSUNNY   55  18  22 NE6G18    30.25F
MORRIS         MOSUNNY   54  10  17 NE13G18   30.24S
ALEXANDRIA     SUNNY     53  20  27 N12G17    30.25S
ELBOW LAKE     FAIR      52  21  30 CALM      30.25F
WADENA         MOSUNNY   52  25  35 NE6       30.24S
GLENWOOD       SUNNY     50  21  32 N5        30.25R
APPLETON       MOSUNNY   55  16  21 N14       30.22S
BENSON         MOSUNNY   54  21  28 E9        30.25S
ORTONVILLE     SUNNY     55  21  26 N5G16     30.23S
MADISON        SUNNY     59  19  21 NE12G17   30.23S
WILLMAR        FAIR      55  19  24 N13G20    30.26S
$$
MNZ033>034-036-042>043-049>051-058-059-102300-
   Central Minnesota

CITY           SKY/WX    TMP DP  RH WIND       PRES   REMARKS
ST CLOUD       PTSUNNY   50  20  30 VRB5      30.23F
SAUK CENTRE    MOCLDY    52  21  29 NE8       30.24S
PAYNESVILLE    MOSUNNY   54  21  28 N7        30.24S
AITKIN         MOSUNNY   50  18  27 CALM      30.24S
PINE RIVER     CLOUDY    48  25  40 N3        30.28S
BRAINERD       CLOUDY    51  20  29 N7        30.25S
STAPLES        MOSUNNY   52  18  25 N6        30.24F
LONG PRAIRIE   FAIR      50  21  32 NE9       30.25S
LITTLE FALLS   CLOUDY    50  12  22 NW7       30.25S
CAMP RIPLEY    MOCLDY    52  21  29 N10       30.25F
LITCHFIELD     MOSUNNY   54  23  30 NE12      30.23S
BUFFALO        CLOUDY    51  19  28 MISG      30.24S
MAPLE LAKE     CLOUDY    52  25  34 NE6       30.24S
HUTCHINSON     MOSUNNY   54  25  33 N9        30.23S
$$
MNZ037-044-045-052-053-102300-
   East Central Minnesota

CITY           SKY/WX    TMP DP  RH WIND       PRES   REMARKS
PRINCETON      CLOUDY    54  19  26 N8        30.24S
MORA           SUNNY     50  21  32 N3        30.25S
CAMBRIDGE      PTSUNNY   54  30  40 NW8       30.24S
RUSH CITY      PTSUNNY   51  22  31 N5        30.24S
MOOSE LAKE     PTSUNNY   50  23  34 N7        30.21S
CLOQUET        PTSUNNY   48  18  29 N9        30.21S
$$
MNZ071>073-080-081-089-090-097-098-102300-
   Southwest Minnesota

CITY           SKY/WX    TMP DP  RH WIND       PRES   REMARKS
MONTEVIDEO     MOSUNNY   55  16  21 E8        30.22F
GRANITE FALLS  MOSUNNY   57  24  28 N8G18     30.23S
CANBY          MOSUNNY   57  23  26 N12G20    30.22S
MARSHALL       MOSUNNY   55  23  28 N6G18     30.21S
REDWOOD FALLS  MOSUNNY   56  21  25 MISG      30.21R
OLIVIA         SUNNY     54  19  26 NE9G20    30.21S
PIPESTONE        N/A     55  27  33 NE9G18    30.18S
WINDOM         PTSUNNY   54  23  30 NE12G17   30.17F
WORTHINGTON    PTSUNNY   55  24  30 N15       30.18S
JACKSON        MOSUNNY   54  21  28 NE10      30.18S
TRACY          PTSUNNY   56  16  20 N12G22    30.20S
SLAYTON        PTSUNNY   55  21  26 N13G21    30.20S
$$
MNZ065>067-074>077-082>085-091>093-102300-
   South Central Minnesota

CITY           SKY/WX    TMP DP  RH WIND       PRES   REMARKS
MANKATO        PTSUNNY   55  24  30 NE15G24   30.19S
NEW ULM        SUNNY     55  21  26 N8G20     30.19F
ST JAMES       PTSUNNY   55  19  24 N17G23    30.18S
FAIRMONT       MOSUNNY   55  22  27 N15       30.18S
GLENCOE        PTSUNNY   54  23  29 NW8       30.20S
FARIBAULT      PTSUNNY   54  23  30 N12G18    30.19S
OWATONNA       CLOUDY    52  27  37 N10       30.18S
WASECA         CLOUDY    54  25  32 NE10      30.19S
ALBERT LEA     PTSUNNY   54  27  35 N13G18    30.17R
$$
MNZ078>079-086>088-094>096-102300-
   Southeast Minnesota

CITY           SKY/WX    TMP DP  RH WIND       PRES   REMARKS
ROCHESTER      CLOUDY    52  26  36 N13G21    30.17S
RED WING       MOSUNNY   55  16  21 N10       30.19R
STANTON        MOSUNNY   54  24  31 NE17G23   30.18S
DODGE CENTER   PTSUNNY   54  21  28 N12       30.17S
WINONA         PTSUNNY  N/A N/A N/A N7        30.18S
AUSTIN         PTSUNNY   54  28  37 N8G17     30.16S
PRESTON        MOSUNNY   52  26  36 N10       30.16F
$$
ABBREVIATIONS USED IN REMARKS
   TC - TEMPERATURES IN CELSIUS
  WCI - WIND CHILL INDEX
   HX - HEAT INDEX
  VSB - VISIBILITY
$$



USA.gov is the U.S. government's official web portal to all federal, state and local government web resources and services.